Time,TemperatureF,DewpointF,PressureIn,WindDirection,WindDirectionDegrees,WindSpeedMPH,WindSpeedGustMPH,Humidity,HourlyPrecipIn,Conditions,Clouds,dailyrainin,SoftwareType,DateUTC
2013-03-12 00:00:00,47.0,37.7,30.22,ESE,110,7.0,7.0,70,0.00,,,0.02,Wunderground v.1.15,2013-03-12 07:00:00,
2013-03-12 00:05:00,47.1,37.4,30.22,East,99,7.0,11.0,69,0.00,,,0.00,Wunderground v.1.15,2013-03-12 07:05:00,
2013-03-12 00:15:00,47.6,37.6,30.22,ENE,62,8.0,8.0,68,0.00,,,0.00,Wunderground v.1.15,2013-03-12 07:15:00,
2013-03-12 00:25:00,48.0,37.6,30.22,East,92,8.0,9.0,67,0.00,,,0.00,Wunderground v.1.15,2013-03-12 07:25:00,
2013-03-12 00:35:00,48.3,37.8,30.21,East,100,8.0,8.0,67,0.00,,,0.00,Wunderground v.1.15,2013-03-12 07:35:00,
2013-03-12 00:45:00,48.6,38.5,30.21,East,100,8.0,11.0,68,0.00,,,0.00,Wunderground v.1.15,2013-03-12 07:45:00,
2013-03-12 00:55:00,48.8,38.7,30.21,East,79,8.0,11.0,68,0.00,,,0.00,Wunderground v.1.15,2013-03-12 07:55:00,
2013-03-12 01:00:00,48.9,38.8,30.21,ESE,110,8.0,13.0,68,0.00,,,0.00,Wunderground v.1.15,2013-03-12 08:00:00,
2013-03-12 01:05:00,48.9,38.8,30.21,ESE,103,8.0,13.0,68,0.00,,,0.00,Wunderground v.1.15,2013-03-12 08:05:00,
2013-03-12 01:15:00,48.8,38.7,30.20,East,100,7.0,8.0,68,0.00,,,0.00,Wunderground v.1.15,2013-03-12 08:15:00,
2013-03-12 01:20:00,48.8,38.7,30.20,ESE,106,7.0,7.0,68,0.00,,,0.00,Wunderground v.1.15,2013-03-12 08:20:00,
2013-03-12 01:30:00,49.1,38.2,30.20,SE,130,7.0,11.0,66,0.00,,,0.00,Wunderground v.1.15,2013-03-12 08:30:00,
2013-03-12 01:40:00,49.2,37.9,30.20,East,93,7.0,7.0,65,0.00,,,0.00,Wunderground v.1.15,2013-03-12 08:40:00,
2013-03-12 01:45:00,49.2,38.3,30.20,East,86,7.0,7.0,66,0.00,,,0.00,Wunderground v.1.15,2013-03-12 08:45:00,
2013-03-12 01:55:00,49.1,38.6,30.20,East,88,6.0,7.0,67,0.00,,,0.00,Wunderground v.1.15,2013-03-12 08:55:00,
2013-03-12 02:00:00,48.9,38.8,30.20,ENE,72,5.0,5.0,68,0.00,,,0.00,Wunderground v.1.15,2013-03-12 09:00:00,
2013-03-12 02:05:00,48.9,39.2,30.20,East,92,5.0,5.0,69,0.00,,,0.00,Wunderground v.1.15,2013-03-12 09:05:00,
2013-03-12 02:15:00,48.8,39.8,30.20,ESE,110,5.0,5.0,71,0.00,,,0.00,Wunderground v.1.15,2013-03-12 09:15:00,
2013-03-12 02:25:00,48.5,40.2,30.20,East,90,5.0,7.0,73,0.00,,,0.00,Wunderground v.1.15,2013-03-12 09:25:00,
2013-03-12 02:35:00,48.6,40.3,30.20,ENE,68,6.0,10.0,73,0.00,,,0.00,Wunderground v.1.15,2013-03-12 09:35:00,
2013-03-12 02:45:00,48.8,40.5,30.20,ESE,112,5.0,12.0,73,0.00,,,0.00,Wunderground v.1.15,2013-03-12 09:45:00,
2013-03-12 02:55:00,48.6,40.0,30.20,ESE,102,6.0,7.0,72,0.00,,,0.00,Wunderground v.1.15,2013-03-12 09:55:00,
2013-03-12 03:00:00,48.6,40.3,30.19,SE,143,5.0,5.0,73,0.00,,,0.00,Wunderground v.1.15,2013-03-12 10:00:00,
2013-03-12 03:05:00,48.6,40.3,30.19,East,96,5.0,5.0,73,0.00,,,0.00,Wunderground v.1.15,2013-03-12 10:05:00,
2013-03-12 03:15:00,48.6,40.7,30.18,ENE,71,6.0,7.0,74,0.00,,,0.01,Wunderground v.1.15,2013-03-12 10:15:00,
2013-03-12 03:25:00,48.6,41.0,30.18,ESE,104,6.0,10.0,75,0.00,,,0.01,Wunderground v.1.15,2013-03-12 10:25:00,
2013-03-12 03:35:00,48.9,41.0,30.17,SE,136,7.0,10.0,74,0.00,,,0.01,Wunderground v.1.15,2013-03-12 10:35:00,
2013-03-12 03:40:00,49.1,41.2,30.17,East,100,7.0,7.0,74,0.00,,,0.01,Wunderground v.1.15,2013-03-12 10:40:00,
2013-03-12 03:50:00,49.1,40.8,30.17,ESE,104,6.0,6.0,73,0.00,,,0.01,Wunderground v.1.15,2013-03-12 10:50:00,
2013-03-12 04:00:00,49.1,40.8,30.17,East,99,7.0,12.0,73,0.00,,,0.01,Wunderground v.1.15,2013-03-12 11:00:00,
2013-03-12 04:05:00,49.1,40.8,30.17,ENE,73,7.0,12.0,73,0.00,,,0.01,Wunderground v.1.15,2013-03-12 11:05:00,
2013-03-12 04:15:00,48.8,40.9,30.16,East,96,6.0,7.0,74,0.00,,,0.01,Wunderground v.1.15,2013-03-12 11:15:00,
2013-03-12 04:25:00,48.9,41.0,30.16,East,89,6.0,7.0,74,0.00,,,0.01,Wunderground v.1.15,2013-03-12 11:25:00,
2013-03-12 04:30:00,48.8,41.2,30.16,East,89,6.0,7.0,75,0.00,,,0.01,Wunderground v.1.15,2013-03-12 11:30:00,
2013-03-12 04:40:00,48.5,40.9,30.16,ESE,112,6.0,8.0,75,0.00,,,0.01,Wunderground v.1.15,2013-03-12 11:40:00,
2013-03-12 04:50:00,48.9,41.7,30.15,ESE,109,6.0,8.0,76,0.00,,,0.01,Wunderground v.1.15,2013-03-12 11:50:00,
2013-03-12 05:00:00,48.9,41.3,30.15,ESE,102,6.0,13.0,75,0.00,,,0.01,Wunderground v.1.15,2013-03-12 12:00:00,
2013-03-12 05:05:00,48.8,41.6,30.15,East,90,6.0,13.0,76,0.00,,,0.01,Wunderground v.1.15,2013-03-12 12:05:00,
2013-03-12 05:15:00,49.2,42.0,30.14,East,86,5.0,6.0,76,0.00,,,0.01,Wunderground v.1.15,2013-03-12 12:15:00,
2013-03-12 05:25:00,49.2,42.0,30.14,East,88,7.0,7.0,76,0.00,,,0.01,Wunderground v.1.15,2013-03-12 12:25:00,
2013-03-12 05:35:00,49.5,42.2,30.14,East,97,6.0,6.0,76,0.00,,,0.01,Wunderground v.1.15,2013-03-12 12:35:00,
2013-03-12 05:45:00,49.9,42.3,30.13,ESE,102,5.0,6.0,75,0.00,,,0.01,Wunderground v.1.15,2013-03-12 12:45:00,
2013-03-12 05:55:00,50.1,42.5,30.13,SE,124,6.0,7.0,75,0.00,,,0.01,Wunderground v.1.15,2013-03-12 12:55:00,
2013-03-12 06:00:00,50.1,42.1,30.13,East,88,7.0,11.0,74,0.00,,,0.01,Wunderground v.1.15,2013-03-12 13:00:00,
2013-03-12 06:05:00,50.1,42.5,30.13,ESE,117,7.0,11.0,75,0.00,,,0.01,Wunderground v.1.15,2013-03-12 13:05:00,
2013-03-12 06:15:00,50.2,42.6,30.13,SE,131,6.0,8.0,75,0.00,,,0.01,Wunderground v.1.15,2013-03-12 13:15:00,
2013-03-12 06:25:00,50.4,42.4,30.13,ESE,112,5.0,5.0,74,0.00,,,0.01,Wunderground v.1.15,2013-03-12 13:25:00,
2013-03-12 06:35:00,50.5,42.5,30.12,South,176,5.0,7.0,74,0.00,,,0.01,Wunderground v.1.15,2013-03-12 13:35:00,
2013-03-12 06:45:00,51.0,42.6,30.12,ESE,110,3.0,7.0,73,0.00,,,0.01,Wunderground v.1.15,2013-03-12 13:45:00,
2013-03-12 06:50:00,51.3,42.6,30.11,East,95,3.0,4.0,72,0.00,,,0.01,Wunderground v.1.15,2013-03-12 13:50:00,
2013-03-12 07:05:00,51.7,42.2,30.11,East,95,4.0,5.0,70,0.00,,,0.01,Wunderground v.1.15,2013-03-12 14:05:00,
2013-03-12 07:15:00,51.9,42.0,30.11,SE,130,4.0,7.0,69,0.00,,,0.01,Wunderground v.1.15,2013-03-12 14:15:00,
2013-03-12 07:25:00,52.0,41.8,30.11,East,97,6.0,8.0,68,0.00,,,0.01,Wunderground v.1.15,2013-03-12 14:25:00,
2013-03-12 07:35:00,52.2,42.0,30.10,East,96,7.0,11.0,68,0.00,,,0.01,Wunderground v.1.15,2013-03-12 14:35:00,
2013-03-12 07:45:00,52.2,42.0,30.10,ENE,71,8.0,8.0,68,0.00,,,0.01,Wunderground v.1.15,2013-03-12 14:45:00,
2013-03-12 07:55:00,52.2,42.0,30.10,SE,124,6.0,19.0,68,0.00,,,0.01,Wunderground v.1.15,2013-03-12 14:55:00,
2013-03-12 08:00:00,52.2,42.0,30.11,East,90,6.0,7.0,68,0.00,,,0.01,Wunderground v.1.15,2013-03-12 15:00:00,
2013-03-12 08:05:00,52.3,41.7,30.11,East,99,7.0,7.0,67,0.00,,,0.01,Wunderground v.1.15,2013-03-12 15:05:00,
2013-03-12 08:15:00,52.3,41.7,30.11,South,179,8.0,13.0,67,0.00,,,0.01,Wunderground v.1.15,2013-03-12 15:15:00,
2013-03-12 08:25:00,52.2,42.0,30.11,ESE,107,6.0,13.0,68,0.00,,,0.01,Wunderground v.1.15,2013-03-12 15:25:00,
2013-03-12 08:30:00,52.2,41.6,30.10,South,171,6.0,14.0,67,0.00,,,0.01,Wunderground v.1.15,2013-03-12 15:30:00,
2013-03-12 08:40:00,52.2,42.0,30.10,SSE,150,6.0,6.0,68,0.00,,,0.01,Wunderground v.1.15,2013-03-12 15:40:00,
2013-03-12 08:50:00,52.3,42.0,30.10,ESE,121,6.0,6.0,68,0.00,,,0.01,Wunderground v.1.15,2013-03-12 15:50:00,
2013-03-12 09:00:00,52.3,41.7,30.10,East,96,5.0,5.0,67,0.00,,,0.01,Wunderground v.1.15,2013-03-12 16:00:00,
2013-03-12 09:05:00,52.3,41.7,30.10,SSE,154,5.0,11.0,67,0.00,,,0.01,Wunderground v.1.15,2013-03-12 16:05:00,
2013-03-12 09:15:00,52.3,41.7,30.11,SSE,151,5.0,13.0,67,0.00,,,0.01,Wunderground v.1.15,2013-03-12 16:15:00,
2013-03-12 09:25:00,52.2,42.0,30.11,East,90,7.0,7.0,68,0.00,,,0.01,Wunderground v.1.15,2013-03-12 16:25:00,
2013-03-12 09:35:00,52.0,42.1,30.11,East,95,5.0,7.0,69,0.00,,,0.01,Wunderground v.1.15,2013-03-12 16:35:00,
2013-03-12 09:45:00,52.0,42.1,30.12,ESE,110,5.0,5.0,69,0.00,,,0.01,Wunderground v.1.15,2013-03-12 16:45:00,
2013-03-12 09:55:00,51.9,42.8,30.12,ESE,123,4.0,4.0,71,0.00,,,0.01,Wunderground v.1.15,2013-03-12 16:55:00,
2013-03-12 10:00:00,51.7,42.6,30.13,SSE,150,4.0,10.0,71,0.00,,,0.02,Wunderground v.1.15,2013-03-12 17:00:00,
2013-03-12 10:10:00,51.6,43.2,30.13,SE,126,3.0,3.0,73,0.00,,,0.02,Wunderground v.1.15,2013-03-12 17:10:00,
2013-03-12 10:20:00,51.3,43.3,30.13,SSE,158,4.0,4.0,74,0.05,,,0.03,Wunderground v.1.15,2013-03-12 17:20:00,
2013-03-12 10:30:00,51.4,43.7,30.13,ESE,116,4.0,4.0,75,0.04,,,0.04,Wunderground v.1.15,2013-03-12 17:30:00,
2013-03-12 10:35:00,51.4,43.7,30.13,SSE,154,4.0,4.0,75,0.04,,,0.04,Wunderground v.1.15,2013-03-12 17:35:00,
2013-03-12 10:45:00,51.6,43.9,30.13,South,185,4.0,4.0,75,0.00,,,0.04,Wunderground v.1.15,2013-03-12 17:45:00,
2013-03-12 10:55:00,51.7,44.0,30.13,East,85,4.0,7.0,75,0.00,,,0.04,Wunderground v.1.15,2013-03-12 17:55:00,
2013-03-12 11:00:00,51.7,44.0,30.14,ESE,121,4.0,7.0,75,0.00,,,0.04,Wunderground v.1.15,2013-03-12 18:00:00,
2013-03-12 11:05:00,51.9,44.2,30.14,SE,126,4.0,7.0,75,0.00,,,0.05,Wunderground v.1.15,2013-03-12 18:05:00,
2013-03-12 11:15:00,51.9,44.2,30.14,East,93,4.0,4.0,75,0.00,,,0.05,Wunderground v.1.15,2013-03-12 18:15:00,
2013-03-12 11:25:00,51.7,44.7,30.14,East,90,6.0,7.0,77,0.00,,,0.05,Wunderground v.1.15,2013-03-12 18:25:00,
2013-03-12 11:35:00,51.7,44.7,30.14,ESE,104,8.0,11.0,77,0.00,,,0.06,Wunderground v.1.15,2013-03-12 18:35:00,
2013-03-12 11:45:00,51.6,44.6,30.14,SE,133,5.0,6.0,77,0.00,,,0.06,Wunderground v.1.15,2013-03-12 18:45:00,
2013-03-12 11:55:00,51.6,44.6,30.14,East,89,5.0,5.0,77,0.00,,,0.06,Wunderground v.1.15,2013-03-12 18:55:00,
2013-03-12 12:00:00,51.6,44.6,30.14,East,92,4.0,7.0,77,0.00,,,0.06,Wunderground v.1.15,2013-03-12 19:00:00,
2013-03-12 12:05:00,51.7,44.7,30.14,SE,134,5.0,7.0,77,0.00,,,0.06,Wunderground v.1.15,2013-03-12 19:05:00,
2013-03-12 12:15:00,51.9,44.9,30.14,ESE,113,5.0,6.0,77,0.00,,,0.07,Wunderground v.1.15,2013-03-12 19:15:00,
2013-03-12 12:25:00,52.0,44.7,30.14,ESE,112,5.0,5.0,76,0.00,,,0.07,Wunderground v.1.15,2013-03-12 19:25:00,
2013-03-12 12:35:00,52.2,43.8,30.14,East,97,6.0,9.0,73,0.00,,,0.07,Wunderground v.1.15,2013-03-12 19:35:00,
2013-03-12 12:45:00,52.5,43.7,30.14,ESE,114,6.0,12.0,72,0.00,,,0.07,Wunderground v.1.15,2013-03-12 19:45:00,
2013-03-12 12:55:00,52.5,43.7,30.14,East,99,5.0,7.0,72,0.00,,,0.07,Wunderground v.1.15,2013-03-12 19:55:00,
2013-03-12 13:00:00,52.5,43.7,30.14,SE,145,4.0,4.0,72,0.00,,,0.08,Wunderground v.1.15,2013-03-12 20:00:00,
2013-03-12 13:05:00,52.5,43.7,30.14,SSE,155,4.0,6.0,72,0.00,,,0.08,Wunderground v.1.15,2013-03-12 20:05:00,
2013-03-12 13:15:00,52.5,43.4,30.15,ESE,110,7.0,12.0,71,0.00,,,0.08,Wunderground v.1.15,2013-03-12 20:15:00,
2013-03-12 13:25:00,52.3,44.3,30.15,SE,126,6.0,11.0,74,0.00,,,0.08,Wunderground v.1.15,2013-03-12 20:25:00,
2013-03-12 13:35:00,52.6,43.8,30.15,SSW,200,8.0,8.0,72,0.00,,,0.09,Wunderground v.1.15,2013-03-12 20:35:00,
2013-03-12 13:45:00,52.6,44.5,30.15,ESE,106,4.0,5.0,74,0.00,,,0.09,Wunderground v.1.15,2013-03-12 20:45:00,
2013-03-12 13:55:00,52.6,44.2,30.15,East,97,4.0,8.0,73,0.00,,,0.09,Wunderground v.1.15,2013-03-12 20:55:00,
2013-03-12 14:00:00,52.5,44.8,30.15,SE,130,5.0,5.0,75,0.00,,,0.09,Wunderground v.1.15,2013-03-12 21:00:00,
2013-03-12 14:05:00,52.2,44.9,30.15,ESE,112,6.0,11.0,76,0.00,,,0.09,Wunderground v.1.15,2013-03-12 21:05:00,
2013-03-12 14:15:00,51.3,44.7,30.15,ESE,103,7.0,11.0,78,0.00,,,0.10,Wunderground v.1.15,2013-03-12 21:15:00,
2013-03-12 14:25:00,50.5,44.2,30.15,ESE,106,7.0,8.0,79,0.00,,,0.10,Wunderground v.1.15,2013-03-12 21:25:00,
2013-03-12 14:35:00,50.1,44.2,30.15,SE,136,6.0,9.0,80,0.04,,,0.11,Wunderground v.1.15,2013-03-12 21:35:00,
2013-03-12 14:45:00,50.1,44.5,30.14,ESE,120,5.0,7.0,81,0.04,,,0.11,Wunderground v.1.15,2013-03-12 21:45:00,
2013-03-12 14:55:00,50.1,44.5,30.14,East,99,7.0,10.0,81,0.00,,,0.11,Wunderground v.1.15,2013-03-12 21:55:00,
2013-03-12 15:00:00,50.1,44.2,30.14,East,95,9.0,9.0,80,0.00,,,0.11,Wunderground v.1.15,2013-03-12 22:00:00,
2013-03-12 15:05:00,50.2,44.3,30.14,East,99,8.0,11.0,80,0.00,,,0.11,Wunderground v.1.15,2013-03-12 22:05:00,
2013-03-12 15:15:00,50.2,44.3,30.14,ESE,102,8.0,8.0,80,0.00,,,0.11,Wunderground v.1.15,2013-03-12 22:15:00,
2013-03-12 15:25:00,50.2,44.3,30.14,ESE,102,8.0,8.0,80,0.00,,,0.11,Wunderground v.1.15,2013-03-12 22:25:00,
2013-03-12 15:35:00,50.2,44.6,30.14,East,93,7.0,10.0,81,0.00,,,0.11,Wunderground v.1.15,2013-03-12 22:35:00,
2013-03-12 15:45:00,50.1,44.5,30.13,East,92,8.0,9.0,81,0.00,,,0.11,Wunderground v.1.15,2013-03-12 22:45:00,
2013-03-12 15:55:00,50.1,44.5,30.13,East,99,9.0,13.0,81,0.00,,,0.11,Wunderground v.1.15,2013-03-12 22:55:00,
2013-03-12 16:00:00,50.2,44.6,30.14,East,99,9.0,9.0,81,0.00,,,0.11,Wunderground v.1.15,2013-03-12 23:00:00,
2013-03-12 16:10:00,50.4,44.5,30.14,East,90,9.0,9.0,80,0.00,,,0.11,Wunderground v.1.15,2013-03-12 23:10:00,
2013-03-12 16:15:00,50.4,44.5,30.14,ESE,109,9.0,9.0,80,0.00,,,0.11,Wunderground v.1.15,2013-03-12 23:15:00,
2013-03-12 16:25:00,50.7,44.4,30.14,ESE,113,10.0,10.0,79,0.00,,,0.11,Wunderground v.1.15,2013-03-12 23:25:00,
2013-03-12 16:35:00,50.7,44.4,30.14,East,92,9.0,9.0,79,0.00,,,0.11,Wunderground v.1.15,2013-03-12 23:35:00,
2013-03-12 16:45:00,50.7,44.4,30.14,ESE,106,8.0,14.0,79,0.00,,,0.12,Wunderground v.1.15,2013-03-12 23:45:00,
2013-03-12 16:55:00,50.7,44.8,30.14,ESE,106,9.0,9.0,80,0.00,,,0.12,Wunderground v.1.15,2013-03-12 23:55:00,
2013-03-12 17:00:00,50.7,45.1,30.14,ESE,102,8.0,8.0,81,0.00,,,0.12,Wunderground v.1.15,2013-03-13 00:00:00,
2013-03-12 17:05:00,50.7,45.1,30.14,East,95,8.0,9.0,81,0.00,,,0.13,Wunderground v.1.15,2013-03-13 00:05:00,
2013-03-12 17:15:00,50.7,45.4,30.13,East,90,8.0,12.0,82,0.00,,,0.13,Wunderground v.1.15,2013-03-13 00:15:00,
2013-03-12 17:25:00,50.7,45.4,30.13,SE,124,10.0,11.0,82,0.04,,,0.14,Wunderground v.1.15,2013-03-13 00:25:00,
2013-03-12 17:35:00,50.7,45.7,30.12,ENE,72,9.0,9.0,83,0.04,,,0.14,Wunderground v.1.15,2013-03-13 00:35:00,
2013-03-12 17:45:00,50.8,46.1,30.12,East,79,9.0,11.0,84,0.00,,,0.14,Wunderground v.1.15,2013-03-13 00:45:00,
2013-03-12 17:55:00,51.0,46.6,30.12,ESE,117,8.0,11.0,85,0.00,,,0.14,Wunderground v.1.15,2013-03-13 00:55:00,
2013-03-12 18:00:00,51.1,46.4,30.13,ESE,114,9.0,9.0,84,0.00,,,0.14,Wunderground v.1.15,2013-03-13 01:00:00,
2013-03-12 18:05:00,51.1,46.4,30.13,East,100,9.0,9.0,84,0.00,,,0.14,Wunderground v.1.15,2013-03-13 01:05:00,
2013-03-12 18:15:00,51.3,46.6,30.12,East,95,8.0,8.0,84,0.00,,,0.14,Wunderground v.1.15,2013-03-13 01:15:00,
2013-03-12 18:25:00,51.4,46.4,30.12,East,89,9.0,11.0,83,0.00,,,0.14,Wunderground v.1.15,2013-03-13 01:25:00,
2013-03-12 18:35:00,51.4,46.4,30.11,ESE,107,9.0,11.0,83,0.00,,,0.14,Wunderground v.1.15,2013-03-13 01:35:00,
2013-03-12 18:45:00,51.6,46.6,30.12,ESE,104,8.0,16.0,83,0.00,,,0.14,Wunderground v.1.15,2013-03-13 01:45:00,
2013-03-12 18:55:00,51.6,46.6,30.12,ESE,110,8.0,12.0,83,0.00,,,0.14,Wunderground v.1.15,2013-03-13 01:55:00,
2013-03-12 19:00:00,51.6,46.6,30.12,ESE,116,7.0,13.0,83,0.00,,,0.15,Wunderground v.1.15,2013-03-13 02:00:00,
2013-03-12 19:05:00,51.7,46.4,30.12,ESE,116,8.0,13.0,82,0.00,,,0.15,Wunderground v.1.15,2013-03-13 02:05:00,
2013-03-12 19:15:00,51.6,46.6,30.13,ESE,119,5.0,7.0,83,0.00,,,0.15,Wunderground v.1.15,2013-03-13 02:15:00,
2013-03-12 19:20:00,51.6,46.6,30.13,ESE,121,6.0,6.0,83,0.00,,,0.15,Wunderground v.1.15,2013-03-13 02:20:00,
2013-03-12 19:30:00,51.7,46.4,30.13,ESE,117,6.0,6.0,82,0.00,,,0.16,Wunderground v.1.15,2013-03-13 02:30:00,
2013-03-12 19:40:00,51.9,45.9,30.13,ESE,119,6.0,6.0,80,0.00,,,0.16,Wunderground v.1.15,2013-03-13 02:40:00,
2013-03-12 19:45:00,51.7,45.7,30.14,SE,136,5.0,6.0,80,0.00,,,0.16,Wunderground v.1.15,2013-03-13 02:45:00,
2013-03-12 19:55:00,51.7,45.4,30.14,SSE,147,6.0,11.0,79,0.00,,,0.16,Wunderground v.1.15,2013-03-13 02:55:00,
2013-03-12 20:00:00,51.6,45.3,30.14,SE,136,6.0,6.0,79,0.00,,,0.16,Wunderground v.1.15,2013-03-13 03:00:00,
2013-03-12 20:05:00,51.6,45.3,30.14,ESE,121,5.0,6.0,79,0.00,,,0.16,Wunderground v.1.15,2013-03-13 03:05:00,
2013-03-12 20:15:00,51.4,45.1,30.14,ESE,109,5.0,12.0,79,0.00,,,0.17,Wunderground v.1.15,2013-03-13 03:15:00,
2013-03-12 20:25:00,51.3,45.0,30.14,SSE,164,7.0,7.0,79,0.00,,,0.17,Wunderground v.1.15,2013-03-13 03:25:00,
2013-03-12 20:35:00,51.4,45.1,30.14,SE,143,6.0,6.0,79,0.00,,,0.17,Wunderground v.1.15,2013-03-13 03:35:00,
2013-03-12 20:40:00,51.3,45.0,30.14,ESE,103,3.0,3.0,79,0.00,,,0.17,Wunderground v.1.15,2013-03-13 03:40:00,
2013-03-12 20:50:00,51.4,45.1,30.15,SSW,205,5.0,5.0,79,0.00,,,0.18,Wunderground v.1.15,2013-03-13 03:50:00,
2013-03-12 21:00:00,51.4,45.4,30.15,ESE,123,4.0,7.0,80,0.00,,,0.18,Wunderground v.1.15,2013-03-13 04:00:00,
2013-03-12 21:05:00,51.4,45.4,30.15,East,93,5.0,8.0,80,0.00,,,0.18,Wunderground v.1.15,2013-03-13 04:05:00,
2013-03-12 21:10:00,51.4,45.4,30.15,East,90,5.0,7.0,80,0.00,,,0.18,Wunderground v.1.15,2013-03-13 04:10:00,
2013-03-12 21:15:00,51.4,45.4,30.14,East,92,6.0,7.0,80,0.00,,,0.18,Wunderground v.1.15,2013-03-13 04:15:00,
2013-03-12 21:20:00,51.4,45.4,30.14,East,97,6.0,6.0,80,0.00,,,0.18,Wunderground v.1.15,2013-03-13 04:20:00,
2013-03-12 21:25:00,51.4,45.4,30.14,ESE,114,5.0,6.0,80,0.00,,,0.19,Wunderground v.1.15,2013-03-13 04:25:00,
2013-03-12 21:35:00,51.4,45.4,30.15,ESE,116,7.0,8.0,80,0.00,,,0.19,Wunderground v.1.15,2013-03-13 04:35:00,
2013-03-12 21:45:00,51.3,45.3,30.15,ESE,109,6.0,7.0,80,0.00,,,0.19,Wunderground v.1.15,2013-03-13 04:45:00,
2013-03-12 21:55:00,51.3,45.3,30.15,East,100,6.0,11.0,80,0.00,,,0.19,Wunderground v.1.15,2013-03-13 04:55:00,
2013-03-12 22:00:00,51.3,45.3,30.16,ESE,120,5.0,10.0,80,0.00,,,0.19,Wunderground v.1.15,2013-03-13 05:00:00,
2013-03-12 22:05:00,51.3,45.3,30.16,East,99,6.0,10.0,80,0.00,,,0.19,Wunderground v.1.15,2013-03-13 05:05:00,
2013-03-12 22:15:00,51.1,45.8,30.16,ENE,71,6.0,7.0,82,0.00,,,0.20,Wunderground v.1.15,2013-03-13 05:15:00,
2013-03-12 22:25:00,51.1,45.8,30.16,East,90,6.0,7.0,82,0.00,,,0.20,Wunderground v.1.15,2013-03-13 05:25:00,
2013-03-12 22:30:00,51.1,45.8,30.16,East,96,6.0,10.0,82,0.00,,,0.20,Wunderground v.1.15,2013-03-13 05:30:00,
2013-03-12 22:40:00,51.1,45.8,30.16,ESE,109,8.0,13.0,82,0.00,,,0.20,Wunderground v.1.15,2013-03-13 05:40:00,
2013-03-12 22:50:00,51.1,45.5,30.16,East,80,8.0,8.0,81,0.00,,,0.20,Wunderground v.1.15,2013-03-13 05:50:00,
2013-03-12 23:00:00,51.1,45.5,30.16,ENE,75,8.0,8.0,81,0.00,,,0.20,Wunderground v.1.15,2013-03-13 06:00:00,
2013-03-12 23:05:00,51.1,45.5,30.16,East,86,8.0,12.0,81,0.00,,,0.20,Wunderground v.1.15,2013-03-13 06:05:00,
2013-03-12 23:15:00,51.0,45.4,30.15,ENE,62,7.0,8.0,81,0.00,,,0.20,Wunderground v.1.15,2013-03-13 06:15:00,
2013-03-12 23:25:00,51.0,45.4,30.15,East,96,8.0,10.0,81,0.00,,,0.20,Wunderground v.1.15,2013-03-13 06:25:00,
2013-03-12 23:35:00,51.0,45.0,30.16,East,82,9.0,9.0,80,0.00,,,0.20,Wunderground v.1.15,2013-03-13 06:35:00,
2013-03-12 23:45:00,51.0,45.0,30.16,ENE,66,10.0,13.0,80,0.00,,,0.20,Wunderground v.1.15,2013-03-13 06:45:00,
2013-03-12 23:55:00,51.1,45.1,30.16,East,88,9.0,13.0,80,0.00,,,0.20,Wunderground v.1.15,2013-03-13 06:55:00,